Location: Kelshall
(52.0000°N, 0.0500°W)
Time: 12:16:07
(UTC+00:00)

Resurs 01 Rocket - Pass Details

Date: 18 September 2020
Orbit: 633 x 645 km, 98.0° (Epoch: 23 October)

Event Time Altitude Azimuth Distance (km) Brightness Sun altitude
Exits shadow 19:19:15 17° 105° (ESE) 1,637 3.1 -11.7°
Maximum altitude 19:21:37 26° 62° (ENE) 1,275 2.8 -12.1°
Drops below altitude 10° 19:25:19 10° 6° (N) 2,054 4.4 -12.6°
Sets 19:27:48 0° 354° (N) 2,968 5.4 -13.0°
